Simultaneous Nadir Overpasses (SNOs) Predictions

Prediction of SNOs between GOES-17 and LANDSAT-8 Satellite Orbit:

Table of predicted SNOs for the next 14.0 days since TLE Epoch: 11/25/2023
Index Date Time (GOES-17) GOES-17 Lat,Lon LANDSAT-8 Lat,Lon Distance(km) Time Diff (sec)
1 11/25/2023 05:28:15 0.02,-104.66 -0.79,-108.49 435.12 80
2 11/26/2023 16:54:39 -0.02,-104.68 -0.93,-100.34 492.90 80
3 11/27/2023 05:16:03 0.02,-104.66 -0.18,-105.53 98.79 80
4 11/29/2023 05:01:11 -0.00,-104.66 0.45,-102.57 238.05 80
5 11/29/2023 17:22:26 0.00,-104.67 0.66,-107.72 347.06 80
6 12/01/2023 17:10:13 0.02,-104.67 0.06,-104.75 10.03 80
7 12/03/2023 17:00:40 0.03,-104.68 -0.56,-101.79 327.90 80
8 12/04/2023 05:22:04 -0.03,-104.67 -0.52,-106.98 262.75 80
9 12/06/2023 05:07:11 -0.04,-104.68 0.13,-104.02 75.35 80
10 12/08/2023 04:54:57 -0.04,-104.69 0.75,-101.05 413.47 80
11 12/08/2023 17:16:12 0.04,-104.69 0.34,-106.21 172.05 80
